Regional Weather Roundup
Issued by NWS Cleveland, OH

Home | Current Version | Previous Version | Graphics & Text | Print | Product List | Glossary On
Versions: 1 2 3 4 5 6 7 8 9 10 11 12 13 14 15 16 17 18 19 20 21 22 23 24 25 26 27 28 29 30 31 32 33 34 35 36 37 38 39 40 41 42 43 44 45 46 47 48 49 50
000
ASUS41 KCLE 262100
RWRCLE
OHIO REGIONAL WEATHER ROUNDUP
NATIONAL WEATHER SERVICE WILMINGTON, OH
500 PM EDT FRI MAY 26 2017

NOTE: "FAIR" INDICATES FEW OR NO CLOUDS BELOW 12,000 FEET WITH NO
SIGNIFICANT WEATHER AND/OR OBSTRUCTIONS TO VISIBILITY.

OHZ001>008-015>018-024>027-034-035-043-044-262200-
   NORTHWEST OHIO

CITY           SKY/WX    TMP DP  RH WIND       PRES   REMARKS
DEFIANCE       FAIR      68  54  60 SW5       29.85F
FINDLAY        FAIR      71  53  52 W3        29.85F
TOLEDO EXPRESS FAIR      70  54  56 SW9       29.85F
TOLEDO EXEC    FAIR      71  55  56 W5        29.86S
LIMA           LGT RAIN  68  57  68 SW5       29.86F
$$

OHZ009>014-019>023-028>033-038-089-262200-
   NORTHEAST OHIO

CITY           SKY/WX    TMP DP  RH WIND       PRES   REMARKS
CLE-HOPKINS    PTSUNNY   68  52  56 W13       29.89F
CLE-LAKEFRONT  PTSUNNY   63  54  72 W9        29.88R
CUY CO. ARPT   PTSUNNY   64  52  63 W12G21    29.89R
LORAIN-ELYRIA  FAIR      65  51  60 NW5       29.89S
ASHTABULA      CLOUDY    60  54  80 NW10      29.88R
AKRON-CANTON   PTSUNNY   66  54  65 NW10      29.88S
WOOSTER        NOT AVBL
MANSFIELD      FAIR      67  54  63 W8        29.89S
YOUNGSTOWN     CLOUDY    65  52  62 W12       29.87S
$$

OHZ042-051>053-060>062-070>072-077>081-262200-
  SOUTHWEST OHIO

CITY           SKY/WX    TMP DP  RH WIND       PRES   REMARKS
CINC-COVINGTON FAIR      78  57  48 SW12      29.87F
CINC-LUNKEN    FAIR      78  60  53 S8        29.86F
HAMILTON       FAIR      80  59  48 VRB7      29.86F
DAYTON         NOT AVBL
WRIGHT-PAT AFB NOT AVBL
DAYTON GENERAL FAIR      77  55  46 S10       29.86F
WILMINGTON     FAIR      76  58  53 W7        29.87F
$$

OHZ036-037-039>041-045>050-054>059-063>069-073>076-082>088-262200-
  CENTRAL AND SOUTHEAST OHIO

CITY           SKY/WX    TMP DP  RH WIND       PRES   REMARKS
COLUMBUS       PTSUNNY   73  56  54 W12       29.87F
OSU AIRPORT    FAIR      72  56  57 W9        29.87F
BOLTON FIELD   PTSUNNY   72  57  60 W7        29.89S
RICKENBACK AFB NOT AVBL
NEWARK         PTSUNNY   72  54  53 W14       29.87S
MARION         FAIR      72  53  51 W7        29.88F
LANCASTER      FAIR      74  54  49 W8        29.89S
ZANESVILLE     PTSUNNY   75  53  46 W13       29.87F
NEW PHILLY     PTSUNNY   70  55  59 W8        29.88R
$$




USA.gov is the U.S. government's official web portal to all federal, state and local government web resources and services.